Regional Weather Roundup
Issued by NWS Sioux Falls, SD

Home | Current Version | Previous Version | Text Only | Print | Product List | Glossary On
Versions: 1 2 3 4 5 6 7 8 9 10 11 12 13 14 15 16 17 18 19 20 21 22 23 24 25 26 27 28 29 30 31 32 33 34 35 36 37 38 39 40 41 42 43 44 45 46 47 48 49 50
000
ASUS43 KFSD 030410
RWRFSD

WEATHER ROUNDUP FOR SE SOUTH DAKOTA/SW MINNESOTA/NW IOWA
NATIONAL WEATHER SERVICE SIOUX FALLS SD
1100 PM CDT WED SEP 02 2015

NOTE: "FAIR" INDICATES FEW OR NO CLOUDS BELOW 12,000 FEET WITH NO
SIGNIFICANT WEATHER AND OR OBSTRUCTIONS TO VISIBILITY.


SDZ038>040-050-052>070-030500-
SOUTHEAST SOUTH DAKOTA

CITY           SKY/WX    TMP DP  RH WIND       PRES   REMARKS
BROOKINGS      CLEAR     73  70  88 SE10      29.87S
CHAMBERLAIN    CLEAR     75  68  80 SE8       29.76S
HURON          CLEAR     77  73  87 SE10      29.77S
MADISON        FAIR      72  72 100 SE7       29.86R
MITCHELL       CLEAR     76  73  91 SE9       29.79S
SIOUX FALLS    PTCLDY    76  71  85 SE7       29.85R
WINNER         FAIR      86  54  33 S20       29.78R
YANKTON        CLEAR     73  70  88 SE5       29.81S
$$

MNZ071-072-080-081-089-090-097-098-030500-
SOUTHWEST MINNESOTA

CITY           SKY/WX    TMP DP  RH WIND       PRES   REMARKS
FAIRMONT       CLEAR     72  64  78 S5        29.89R
JACKSON        CLEAR     73  70  88 S5        29.90S
LUVERNE        CLEAR     73  70  88 SE5       29.87S
MARSHALL       CLEAR     73  68  83 SE7       29.87S
MONTEVIDEO     CLEAR     72  72 100 SE7       29.88R FOG
PIPESTONE      CLEAR     73  70  88 SE5       29.88S
REDWOOD FALLS  PTCLDY    74  72  93 E6        29.86S FOG
TRACY          CLEAR     75  73  91 S6        29.87F
WINDOM         CLEAR     73  70  88 CALM      29.89S
WORTHINGTON    CLEAR     72  66  83 SE5       29.89S
$$

IAZ001>003-012>014-020>022-031-032-NEZ013-014-SDZ071-030500-
NORTHWEST IOWA

CITY           SKY/WX    TMP DP  RH WIND       PRES   REMARKS
CHEROKEE       CLEAR     73  72  96 CALM      29.88S
DENISON        CLEAR     75  72  88 S12       29.87S
ESTHERVILLE    CLEAR     69  68  96 S6        29.89S
LE MARS        CLEAR     73  72  94 CALM      29.86S
ORANGE CITY    CLEAR     73  72  94 SE3       29.88R
SHELDON        CLEAR     72  70  94 SE6       29.87S
SIOUX CITY     CLEAR     73  68  84 SE8       29.84S
SPENCER        CLEAR     74  70  87 S8        29.89S FOG
STORM LAKE     CLEAR     72  72 100 SE7       29.91S
$$

ABBREVIATIONS USED IN REMARKS
   TC - TEMPERATURE IN CELSIUS
  WCI - WIND CHILL INDEX
   HX - HEAT INDEX
  VSB - VISIBILITY



USA.gov is the U.S. government's official web portal to all federal, state and local government web resources and services.